Theta_e
335 339 347 347 347 345 342 340 343 344 345 345 343 341 342 344 345 346 346 348 348 347 346 346 346 345 344 344 343 343 343 342 342 343 343 344 343 343 342 341 340 336 341
338 340 345 346 348 344 340 340 342 344 345 344 342 340 340 342 342 343 344 346 347 345 345 344 344 343 342 341 342 341 341 340 341 340 340 340 340 340 340 339 339 334 338
337 341 343 345 348 345 341 343 344 344 343 344 342 341 340 339 340 341 341 343 344 343 343 341 341 340 339 340 341 340 340 338 338 338 338 332 335 338 338 335 337 335 335
339 340 342 344 347 346 342 343 343 344 342 341 341 340 340 339 339 338 339 339 337 337 339 339 340 339 339 341 339 338 337 336 335 334 331 331 332 337 337 336 336 335 333
337 338 340 343 347 346 344 343 343 343 341 339 341 340 341 340 339 338 338 340 338 337 336 338 338 338 338 338 338 337 335 334 332 328 326 329 329 334 336 335 333 332 334
336 336 340 344 347 345 344 343 342 342 341 341 340 339 341 342 342 339 340 341 338 336 336 336 336 336 335 336 336 335 334 332 328 322 322 325 326 335 334 333 332 333 335
334 336 339 343 345 344 344 343 342 342 341 339 341 340 340 340 339 340 339 337 335 336 335 333 333 332 332 333 334 333 331 329 322 321 321 323 326 332 333 333 332 333 332
334 336 338 336 339 342 343 342 341 341 341 338 339 339 339 338 338 339 338 337 335 335 334 333 331 330 331 332 332 331 329 326 322 320 321 322 332 331 330 330 330 330 330
336 336 335 335 335 336 338 338 339 340 340 339 339 338 339 338 339 339 338 336 333 333 333 332 330 329 330 329 328 328 326 325 318 320 322 324 332 331 330 330 330 330 329
334 334 333 332 335 336 334 332 334 335 337 336 333 332 331 331 332 332 332 335 332 332 332 331 329 328 328 328 328 326 323 322 317 319 320 324 330 329 328 330 329 328 328
331 332 332 331 332 333 333 329 329 330 330 330 327 325 323 323 324 326 328 332 333 332 331 329 327 325 323 323 325 323 320 316 317 317 319 327 328 328 328 328 327 326 325
327 329 331 330 330 332 336 329 328 328 326 325 323 321 321 321 322 323 322 326 328 328 329 328 326 325 320 315 315 318 314 315 315 316 319 327 325 325 325 324 325 325 325
328 329 330 330 329 330 331 328 327 325 323 322 322 321 321 320 319 318 318 317 317 317 317 318 316 316 315 314 313 312 312 313 313 314 319 324 324 324 323 323 321 320 323
328 329 330 330 329 329 330 329 327 325 322 321 321 321 319 318 317 316 316 315 315 315 313 313 313 314 314 314 313 312 312 312 313 313 314 321 323 321 322 321 321 323 323
325 329 331 331 328 329 328 329 327 326 324 322 320 320 320 318 316 316 315 314 314 314 313 312 312 313 312 313 313 312 311 312 312 312 311 317 322 321 323 321 321 320 321
326 328 332 332 332 330 328 328 328 327 326 324 321 320 321 320 318 316 315 315 313 314 313 312 312 311 311 311 311 311 311 310 311 312 310 311 319 320 323 323 322 324 323
326 327 329 332 333 331 330 329 329 328 327 325 323 321 320 320 319 317 315 314 314 314 312 311 311 310 309 309 309 310 310 310 309 310 311 310 311 316 319 322 323 323 324
325 326 327 331 332 332 331 330 330 331 330 328 325 322 319 319 320 318 317 316 314 312 311 310 309 308 307 307 307 307 307 308 309 309 310 309 310 311 314 319 321 323 323
327 327 327 328 330 332 332 332 331 329 329 329 327 325 320 319 319 318 317 316 314 311 310 309 307 307 305 305 306 306 305 306 309 309 309 309 307 309 310 314 316 317 320
328 328 328 329 329 329 331 332 331 330 328 329 327 326 322 320 318 318 316 315 313 310 308 307 306 305 305 305 307 307 304 305 305 306 306 307 307 308 309 309 308 310 313
325 327 327 327 328 328 328 329 328 328 329 327 328 327 324 320 318 317 316 314 312 310 309 306 305 305 303 306 306 305 301 304 305 305 305 305 306 307 307 306 307 307 308
321 326 327 327 328 328 329 328 329 329 329 329 328 326 325 323 320 319 316 314 311 308 307 306 304 301 303 306 301 299 300 304 302 301 301 302 302 304 305 306 306 305 306
316 323 326 327 328 328 328 326 321 321 324 325 325 325 324 324 322 319 316 313 311 311 311 309 307 305 303 300 304 305 299 299 300 301 300 300 300 300 300 303 304 304 303
308 314 323 327 328 328 328 325 324 323 322 323 323 325 326 324 323 321 319 318 315 313 311 311 308 307 306 302 302 303 302 302 300 298 299 298 299 299 300 299 300 299 301
299 304 308 315 321 326 326 326 324 323 323 319 319 320 321 324 324 321 320 318 316 315 314 312 308 307 307 307 305 300 300 298 297 297 294 297 298 298 297 294 294 296 298
300 300 300 299 301 307 322 325 324 323 319 319 322 323 323 324 325 323 320 319 318 316 314 313 312 309 308 308 306 302 301 298 295 294 293 294 294 295 293 293 292 295 295
Wind_Speed
4 5 10 12 12 13 12 12 11 11 13 15 16 17 17 17 18 19 17 16 18 20 21 21 21 22 22 22 21 22 23 22 22 22 20 20 21 22 22 19 16 15 21
9 6 10 11 12 15 13 12 11 9 13 15 17 17 16 16 16 18 18 17 18 19 20 20 20 20 19 19 19 20 21 21 19 18 17 16 18 20 21 19 17 15 19
10 7 7 10 12 14 14 11 10 11 12 14 17 15 17 16 16 17 18 15 16 19 20 18 18 19 18 17 17 19 19 20 18 15 12 6 11 18 19 19 15 18 18
10 7 7 9 14 14 14 12 10 11 12 13 14 14 16 16 17 17 17 15 16 18 18 18 18 18 19 17 18 19 19 19 16 15 8 7 9 17 17 18 18 18 17
9 7 8 10 14 13 13 12 11 11 11 11 13 14 14 15 15 16 16 16 17 17 18 17 18 18 18 17 17 18 18 19 16 12 7 7 5 13 17 16 15 15 10
10 7 8 12 14 13 13 12 11 11 11 12 12 12 13 16 16 15 14 18 18 16 16 16 17 17 17 15 15 16 17 18 13 8 7 7 5 12 14 13 15 13 15
9 7 6 10 12 14 13 13 12 12 13 14 12 13 12 14 14 15 15 15 15 15 14 15 16 15 16 15 14 15 16 14 6 6 6 6 5 11 13 13 13 14 15
11 7 6 8 9 12 13 12 12 12 12 13 13 13 13 13 13 15 15 15 14 14 13 13 14 15 16 17 15 15 13 12 8 6 6 4 9 13 13 12 12 13 13
10 9 6 6 7 9 10 11 11 11 11 11 12 11 12 10 11 13 14 14 13 12 12 11 11 13 14 14 14 14 12 11 6 4 5 3 11 12 12 10 12 12 12
9 9 7 6 5 6 6 10 10 11 10 11 11 10 10 10 10 10 10 12 12 11 10 9 9 10 12 13 13 12 10 10 6 5 4 4 9 9 9 10 11 11 11
6 8 7 6 5 6 6 6 9 10 10 9 9 10 7 5 6 7 8 11 11 9 8 8 7 9 10 11 9 10 8 3 5 4 3 6 8 9 9 9 9 9 9
10 8 9 7 6 6 6 5 5 5 4 4 5 6 4 5 5 6 7 11 10 8 7 7 6 6 6 4 3 6 3 4 4 3 2 5 5 5 6 6 7 7 9
14 9 10 10 8 7 6 4 3 3 3 3 5 5 4 4 4 3 3 3 3 4 2 3 3 3 3 2 3 3 3 3 2 2 3 5 3 4 4 4 2 3 5
14 13 12 11 11 9 6 5 5 5 4 4 5 6 4 3 3 4 3 4 3 2 3 2 1 1 2 2 3 3 3 2 2 1 1 2 3 1 2 2 3 3 5
8 11 14 12 10 10 8 6 5 5 5 5 4 5 5 4 4 4 4 3 3 3 3 2 2 2 1 1 2 3 3 2 2 1 1 2 1 3 4 3 4 4 4
8 10 11 13 13 11 9 9 7 5 5 5 5 5 7 5 5 4 4 4 4 3 3 3 3 3 2 0 1 0 2 1 2 3 2 3 5 4 5 6 6 8 8
8 8 10 11 11 12 12 11 8 7 6 6 5 6 8 7 6 6 4 4 5 4 5 3 2 2 2 1 3 3 2 2 2 2 3 3 4 7 7 8 10 10 10
8 11 8 10 9 10 9 8 7 8 7 7 7 6 8 7 7 6 5 5 4 3 4 3 3 3 3 3 2 3 3 3 5 4 4 3 4 3 6 10 11 13 13
13 12 12 11 14 11 8 6 7 7 6 7 7 7 8 7 7 6 5 4 5 4 3 3 2 2 3 3 3 4 4 4 5 4 6 5 5 5 3 7 10 11 13
15 15 15 12 13 12 9 6 4 4 5 6 7 8 9 7 7 6 5 6 5 4 4 3 4 3 3 3 3 4 4 5 5 5 6 4 4 5 4 4 4 4 10
13 15 16 15 14 9 10 8 8 9 6 5 6 9 9 8 8 8 5 5 5 6 6 5 3 5 3 2 1 3 4 7 6 6 4 4 5 5 6 5 3 3 4
16 16 16 16 15 13 10 9 10 9 7 4 5 7 8 10 10 8 7 6 6 4 6 6 5 3 3 4 2 1 4 4 2 3 4 4 6 4 5 5 5 5 5
13 17 16 16 16 14 13 6 2 1 1 3 3 4 5 8 9 9 9 6 6 5 7 7 6 6 3 3 5 3 0 4 3 1 3 3 5 3 4 4 5 5 4
12 7 12 14 14 14 14 11 13 11 11 9 6 5 6 8 8 9 8 9 9 7 7 8 6 5 4 4 2 4 2 0 3 4 2 3 3 4 4 3 4 4 5
7 6 4 4 6 9 11 12 11 11 7 3 3 6 5 6 10 10 10 9 8 7 8 7 6 8 7 5 5 2 3 3 2 3 3 4 3 3 4 3 4 4 5
5 6 5 4 3 5 8 12 12 12 7 6 6 6 5 5 6 8 9 9 10 8 8 8 8 8 8 8 4 4 4 4 3 3 5 4 4 4 3 4 4 4 4
Wind_Direction
169 157 135 129 124 106 96 96 93 86 88 97 89 83 82 81 75 78 80 83 79 77 80 78 77 75 76 75 75 75 75 71 65 63 64 67 70 68 65 61 59 60 61
139 148 137 130 126 114 110 105 100 82 86 93 88 82 83 83 82 79 77 75 81 85 81 78 76 74 70 76 79 80 78 75 65 59 56 58 68 71 67 63 61 59 58
134 132 129 128 132 121 117 112 107 97 92 86 93 92 94 85 85 83 79 78 81 84 81 84 80 70 69 74 78 78 74 70 66 59 56 52 68 68 66 62 65 67 69
135 128 129 131 131 128 123 116 112 101 99 89 96 89 93 92 93 92 91 90 93 88 88 87 82 72 76 83 86 83 78 72 62 53 51 46 54 69 67 69 65 70 67
127 127 138 133 138 130 126 117 111 104 96 105 89 95 97 101 102 96 102 99 96 93 90 87 83 77 75 83 88 90 86 78 63 54 38 50 53 76 73 75 69 63 66
130 130 146 139 138 133 128 123 117 112 107 92 92 102 93 95 95 96 93 94 91 95 93 87 82 76 72 75 82 86 83 78 65 49 36 29 43 82 86 86 83 69 72
130 132 142 140 133 139 137 132 128 122 116 106 99 102 95 95 95 93 92 95 97 91 88 81 77 73 67 66 80 81 82 74 62 53 41 28 51 86 84 82 85 79 76
137 133 139 135 136 142 141 136 133 128 124 120 113 106 104 103 110 108 100 93 93 87 83 75 71 71 67 66 76 76 73 73 61 52 35 13 76 77 78 70 79 75 72
139 133 135 141 147 148 140 137 135 131 126 119 118 112 105 100 88 102 105 102 98 95 86 80 70 72 70 62 79 81 73 70 66 46 29 16 68 72 76 80 82 82 80
146 144 146 146 147 139 147 141 139 133 124 123 120 119 116 108 102 101 103 110 107 109 102 95 82 77 74 67 96 91 83 72 68 54 28 35 68 80 85 82 82 81 87
150 155 152 155 153 144 142 149 141 139 138 137 131 129 109 114 106 96 113 111 114 113 107 103 85 64 54 51 84 91 85 82 76 56 24 41 74 74 81 80 80 95 95
165 176 164 162 161 152 156 151 146 144 147 153 151 147 135 136 134 125 108 105 106 104 107 98 70 35 35 52 66 78 85 97 87 80 40 52 75 86 97 100 104 97 110
171 175 172 169 167 166 158 158 152 151 154 167 166 149 141 134 129 113 113 102 113 104 79 77 40 18 38 67 74 91 94 89 93 68 29 26 74 100 110 99 113 133 136
169 177 174 176 173 174 161 172 171 166 169 176 179 170 145 147 151 154 150 150 146 144 144 137 113 114 86 80 100 87 120 132 139 149 333 26 13 70 148 137 154 140 153
167 171 179 179 182 175 173 174 176 183 183 186 174 176 157 164 171 161 176 168 175 167 178 191 183 156 135 73 73 107 97 160 176 195 247 261 321 288 220 212 225 210 211
183 175 178 181 186 178 180 182 182 184 187 187 180 182 174 173 175 177 176 186 190 195 186 185 181 177 198 195 271 32 164 148 215 218 242 271 257 271 274 250 250 241 227
194 187 184 183 175 178 186 184 183 187 183 189 194 184 180 183 182 179 183 189 197 188 188 176 176 171 184 226 242 258 268 252 225 240 243 244 275 282 267 264 261 255 252
189 196 189 200 194 186 184 181 188 192 186 190 185 190 189 188 181 182 188 201 194 185 175 174 175 191 216 214 234 256 272 278 267 247 246 242 241 244 269 266 261 267 261
197 198 202 199 206 202 188 186 191 182 185 185 184 193 197 190 185 183 193 195 173 181 189 172 188 178 200 234 249 253 252 251 251 252 242 234 240 250 253 269 288 292 284
199 199 202 202 203 206 209 200 187 187 193 187 188 195 189 195 191 185 191 184 177 175 185 180 183 201 200 212 247 256 251 247 239 234 243 246 239 243 250 269 278 298 290
200 196 198 199 197 189 205 199 207 214 208 198 204 196 193 189 190 189 194 186 177 194 198 178 170 201 240 210 302 295 268 239 243 242 237 243 247 244 237 237 231 252 277
196 196 198 198 193 193 201 208 216 220 220 211 192 199 195 193 193 197 192 197 188 174 185 194 172 174 204 185 162 77 319 327 294 247 247 229 237 244 261 262 255 246 247
194 200 196 194 195 193 195 175 105 118 174 182 189 201 199 197 197 200 191 186 182 189 213 203 187 186 181 210 211 179 240 242 329 356 271 254 256 242 256 258 261 268 264
209 194 198 191 192 193 185 185 195 202 205 215 202 198 191 191 201 202 207 204 203 198 205 209 192 188 157 210 214 231 231 186 238 311 326 295 289 277 267 266 270 275 267
156 162 168 177 185 187 190 192 193 209 212 172 164 180 203 202 196 198 200 200 203 200 219 202 190 198 207 205 205 164 226 202 248 240 274 300 320 265 262 259 270 267 258
103 109 116 135 172 173 183 197 199 206 189 182 193 197 207 203 203 203 201 200 203 201 206 214 207 204 204 216 193 181 186 179 196 196 234 251 252 292 291 289 268 267 277